QPF
0.00 0.00 0.00 0.00 0.00 0.00 0.00 0.01 0.02 0.01 0.01 0.02 0.02 0.02 0.02 0.01 0.00 0.00 0.00 0.00 0.00 0.00 0.00 0.00 0.00 0.00 0.00 0.01 0.00 0.01 0.01 0.00 0.01 0.00 0.00 0.00 0.00 0.00 0.00 0.00 0.00 0.00 0.00 0.00
0.01 0.00 0.00 0.00 0.00 0.00 0.00 0.00 0.00 0.00 0.00 0.00 0.01 0.02 0.02 0.01 0.00 0.00 0.00 0.00 0.00 0.00 0.00 0.01 0.00 0.00 0.00 0.01 0.00 0.00 0.00 0.00 0.00 0.01 0.01 0.00 0.00 0.00 0.00 0.00 0.00 0.00 0.00 0.00
0.01 0.00 0.01 0.01 0.00 0.00 0.00 0.00 0.00 0.00 0.00 0.00 0.01 0.00 0.00 0.00 0.00 0.00 0.00 0.00 0.01 0.00 0.01 0.01 0.01 0.00 0.00 0.00 0.01 0.01 0.00 0.00 0.00 0.00 0.01 0.01 0.00 0.00 0.00 0.00 0.00 0.00 0.00 0.00
0.02 0.02 0.03 0.01 0.00 0.00 0.00 0.00 0.00 0.00 0.00 0.01 0.01 0.00 0.00 0.00 0.00 0.00 0.00 0.00 0.00 0.01 0.01 0.01 0.01 0.00 0.00 0.00 0.01 0.01 0.01 0.00 0.00 0.00 0.01 0.01 0.00 0.00 0.01 0.00 0.00 0.00 0.00 0.00
0.02 0.03 0.02 0.01 0.00 0.00 0.00 0.00 0.00 0.00 0.00 0.00 0.00 0.00 0.00 0.00 0.00 0.00 0.00 0.00 0.00 0.00 0.01 0.01 0.01 0.01 0.01 0.00 0.01 0.01 0.01 0.01 0.00 0.00 0.00 0.00 0.01 0.01 0.01 0.00 0.00 0.00 0.00 0.00
0.03 0.04 0.03 0.01 0.00 0.00 0.00 0.01 0.00 0.00 0.00 0.00 0.00 0.00 0.00 0.00 0.00 0.00 0.00 0.00 0.00 0.01 0.01 0.01 0.01 0.01 0.01 0.01 0.01 0.01 0.01 0.01 0.01 0.01 0.01 0.00 0.00 0.00 0.01 0.00 0.00 0.00 0.00 0.00
0.03 0.04 0.02 0.01 0.00 0.00 0.01 0.01 0.00 0.00 0.00 0.00 0.00 0.00 0.00 0.00 0.00 0.00 0.00 0.00 0.00 0.01 0.01 0.01 0.01 0.01 0.01 0.00 0.01 0.01 0.01 0.01 0.00 0.00 0.00 0.00 0.00 0.01 0.01 0.01 0.01 0.00 0.00 0.00
0.02 0.03 0.03 0.01 0.00 0.00 0.00 0.00 0.00 0.00 0.00 0.00 0.00 0.00 0.00 0.00 0.00 0.00 0.00 0.00 0.01 0.01 0.01 0.02 0.01 0.01 0.01 0.00 0.00 0.01 0.02 0.01 0.01 0.00 0.00 0.00 0.01 0.02 0.01 0.01 0.00 0.00 0.00 0.00
0.01 0.02 0.01 0.01 0.00 0.00 0.00 0.00 0.00 0.00 0.00 0.00 0.00 0.00 0.00 0.00 0.00 0.00 0.00 0.00 0.00 0.01 0.01 0.02 0.02 0.02 0.01 0.01 0.01 0.02 0.02 0.02 0.01 0.01 0.00 0.00 0.01 0.02 0.02 0.01 0.00 0.00 0.00 0.00
0.00 0.01 0.01 0.00 0.00 0.00 0.00 0.00 0.00 0.00 0.00 0.00 0.00 0.00 0.00 0.00 0.00 0.00 0.00 0.00 0.00 0.00 0.00 0.01 0.01 0.02 0.02 0.02 0.03 0.03 0.03 0.02 0.02 0.02 0.01 0.01 0.01 0.02 0.01 0.01 0.00 0.00 0.00 0.00
0.01 0.00 0.00 0.00 0.00 0.00 0.00 0.00 0.00 0.00 0.00 0.00 0.00 0.00 0.00 0.00 0.00 0.00 0.00 0.00 0.00 0.00 0.00 0.00 0.00 0.01 0.02 0.02 0.03 0.04 0.03 0.02 0.02 0.02 0.02 0.01 0.02 0.02 0.01 0.01 0.00 0.00 0.00 0.00
0.01 0.00 0.00 0.00 0.00 0.00 0.00 0.00 0.00 0.00 0.00 0.00 0.00 0.00 0.00 0.00 0.00 0.00 0.00 0.00 0.00 0.00 0.00 0.00 0.00 0.00 0.01 0.01 0.02 0.03 0.02 0.03 0.02 0.02 0.02 0.02 0.02 0.02 0.01 0.01 0.00 0.00 0.00 0.01
0.00 0.00 0.00 0.00 0.00 0.00 0.00 0.00 0.00 0.00 0.00 0.00 0.00 0.00 0.00 0.00 0.00 0.00 0.00 0.00 0.00 0.00 0.00 0.00 0.00 0.00 0.00 0.01 0.02 0.01 0.01 0.00 0.00 0.00 0.01 0.01 0.01 0.01 0.01 0.01 0.00 0.00 0.01 0.01
0.00 0.00 0.00 0.00 0.00 0.00 0.00 0.00 0.00 0.00 0.00 0.00 0.00 0.00 0.00 0.00 0.00 0.00 0.01 0.01 0.01 0.01 0.00 0.00 0.00 0.00 0.01 0.00 0.00 0.00 0.00 0.01 0.01 0.00 0.00 0.00 0.00 0.01 0.01 0.01 0.01 0.01 0.01 0.01
0.00 0.00 0.00 0.00 0.00 0.00 0.00 0.00 0.00 0.00 0.00 0.00 0.00 0.00 0.00 0.00 0.00 0.00 0.01 0.01 0.01 0.01 0.01 0.01 0.01 0.01 0.01 0.00 0.00 0.01 0.01 0.01 0.01 0.01 0.01 0.01 0.01 0.01 0.01 0.01 0.01 0.01 0.01 0.01
0.00 0.00 0.00 0.00 0.00 0.00 0.00 0.00 0.00 0.00 0.00 0.00 0.00 0.00 0.00 0.00 0.00 0.00 0.01 0.01 0.01 0.02 0.02 0.01 0.01 0.01 0.01 0.01 0.01 0.01 0.01 0.01 0.01 0.01 0.01 0.01 0.00 0.01 0.01 0.01 0.01 0.01 0.01 0.01
0.00 0.00 0.00 0.00 0.00 0.00 0.00 0.00 0.00 0.00 0.00 0.00 0.00 0.00 0.00 0.00 0.00 0.00 0.01 0.01 0.01 0.01 0.01 0.01 0.01 0.01 0.01 0.01 0.00 0.00 0.01 0.01 0.01 0.01 0.01 0.01 0.00 0.00 0.01 0.01 0.01 0.01 0.01 0.01
0.01 0.01 0.00 0.00 0.00 0.00 0.00 0.00 0.01 0.01 0.01 0.00 0.00 0.00 0.00 0.00 0.00 0.01 0.01 0.01 0.00 0.00 0.00 0.00 0.00 0.00 0.00 0.00 0.00 0.00 0.00 0.01 0.01 0.01 0.01 0.01 0.00 0.00 0.00 0.01 0.01 0.01 0.01 0.01
0.01 0.01 0.00 0.00 0.00 0.00 0.00 0.00 0.00 0.00 0.01 0.01 0.00 0.00 0.00 0.00 0.01 0.01 0.02 0.01 0.00 0.00 0.00 0.00 0.00 0.00 0.00 0.00 0.00 0.00 0.01 0.01 0.01 0.01 0.01 0.01 0.01 0.00 0.00 0.01 0.01 0.01 0.01 0.01
0.01 0.01 0.00 0.00 0.00 0.00 0.00 0.00 0.00 0.00 0.00 0.00 0.00 0.00 0.00 0.01 0.01 0.02 0.02 0.01 0.00 0.00 0.00 0.00 0.00 0.00 0.00 0.00 0.00 0.00 0.01 0.01 0.01 0.01 0.01 0.01 0.01 0.01 0.01 0.01 0.01 0.01 0.01 0.01
0.01 0.01 0.01 0.01 0.01 0.01 0.00 0.00 0.00 0.00 0.00 0.00 0.00 0.00 0.00 0.01 0.02 0.02 0.02 0.01 0.01 0.00 0.00 0.00 0.00 0.00 0.00 0.00 0.00 0.00 0.00 0.00 0.01 0.01 0.01 0.02 0.02 0.01 0.01 0.01 0.01 0.01 0.01 0.01
0.01 0.01 0.01 0.01 0.01 0.01 0.01 0.01 0.01 0.00 0.00 0.00 0.00 0.00 0.00 0.00 0.01 0.02 0.02 0.02 0.02 0.01 0.00 0.00 0.01 0.01 0.01 0.00 0.00 0.00 0.00 0.00 0.00 0.01 0.01 0.01 0.01 0.01 0.01 0.01 0.01 0.01 0.00 0.00
0.00 0.00 0.00 0.00 0.00 0.00 0.00 0.00 0.00 0.00 0.00 0.00 0.00 0.00 0.00 0.00 0.01 0.02 0.03 0.04 0.04 0.02 0.01 0.01 0.02 0.01 0.01 0.01 0.01 0.01 0.01 0.01 0.00 0.01 0.01 0.01 0.01 0.01 0.00 0.00 0.00 0.00 0.00 0.00
0.00 0.00 0.00 0.00 0.00 0.00 0.00 0.00 0.00 0.00 0.00 0.00 0.00 0.00 0.00 0.00 0.00 0.01 0.02 0.03 0.05 0.04 0.03 0.03 0.03 0.04 0.03 0.03 0.03 0.02 0.01 0.01 0.01 0.01 0.01 0.01 0.01 0.01 0.01 0.00 0.00 0.00 0.00 0.00
0.00 0.00 0.00 0.00 0.00 0.00 0.00 0.00 0.00 0.00 0.00 0.00 0.00 0.00 0.00 0.00 0.01 0.01 0.01 0.01 0.02 0.02 0.02 0.03 0.03 0.04 0.04 0.03 0.02 0.02 0.01 0.01 0.01 0.01 0.01 0.01 0.01 0.01 0.01 0.01 0.01 0.01 0.01 0.00
0.00 0.00 0.00 0.00 0.00 0.00 0.00 0.00 0.00 0.00 0.00 0.00 0.00 0.00 0.00 0.00 0.00 0.00 0.00 0.00 0.00 0.01 0.01 0.01 0.01 0.01 0.01 0.01 0.01 0.01 0.01 0.00 0.00 0.00 0.00 0.00 0.00 0.00 0.00 0.00 0.00 0.00 0.00 0.00
0.00 0.00 0.00 0.00 0.00 0.00 0.00 0.00 0.00 0.00 0.00 0.00 0.00 0.00 0.00 0.00 0.00 0.00 0.00 0.00 0.00 0.00 0.00 0.00 0.00 0.01 0.01 0.01 0.01 0.01 0.01 0.01 0.00 0.00 0.00 0.00 0.00 0.00 0.00 0.00 0.00 0.00 0.00 0.00
MSLP
1014.16 1014.31 1014.43 1014.54 1014.64 1014.72 1014.75 1014.70 1014.53 1014.22 1013.74 1013.11 1012.35 1011.52 1010.68 1009.91 1009.28 1008.85 1008.65 1008.69 1008.96 1009.41 1010.00 1010.67 1011.36 1012.04 1012.68 1013.26 1013.79 1014.27 1014.72 1015.16 1015.60 1016.04 1016.48 1016.92 1017.34 1017.74 1018.12 1018.48 1018.81 1019.11 1019.40 1019.68
1014.12 1014.19 1014.20 1014.16 1014.07 1013.95 1013.79 1013.56 1013.25 1012.84 1012.33 1011.71 1011.01 1010.27 1009.54 1008.89 1008.36 1008.01 1007.87 1007.94 1008.23 1008.69 1009.29 1009.98 1010.71 1011.43 1012.13 1012.78 1013.38 1013.94 1014.46 1014.95 1015.44 1015.92 1016.39 1016.85 1017.30 1017.73 1018.14 1018.51 1018.85 1019.16 1019.45 1019.72
1014.20 1014.22 1014.13 1013.95 1013.70 1013.40 1013.05 1012.64 1012.18 1011.66 1011.08 1010.44 1009.77 1009.09 1008.44 1007.87 1007.43 1007.15 1007.05 1007.16 1007.47 1007.94 1008.55 1009.25 1010.01 1010.78 1011.53 1012.24 1012.90 1013.52 1014.10 1014.65 1015.18 1015.69 1016.19 1016.68 1017.16 1017.61 1018.03 1018.42 1018.78 1019.09 1019.38 1019.64
1014.34 1014.32 1014.17 1013.90 1013.54 1013.10 1012.59 1012.04 1011.45 1010.83 1010.18 1009.50 1008.83 1008.17 1007.57 1007.06 1006.67 1006.43 1006.36 1006.48 1006.78 1007.25 1007.85 1008.54 1009.30 1010.09 1010.87 1011.62 1012.34 1013.01 1013.64 1014.23 1014.80 1015.34 1015.86 1016.37 1016.86 1017.33 1017.77 1018.18 1018.54 1018.87 1019.17 1019.42
1014.40 1014.38 1014.21 1013.91 1013.49 1012.98 1012.40 1011.77 1011.10 1010.40 1009.70 1009.00 1008.32 1007.67 1007.09 1006.59 1006.22 1005.98 1005.90 1006.00 1006.27 1006.69 1007.24 1007.90 1008.64 1009.41 1010.19 1010.97 1011.71 1012.41 1013.07 1013.70 1014.29 1014.86 1015.40 1015.93 1016.43 1016.91 1017.36 1017.78 1018.16 1018.50 1018.80 1019.06
1014.25 1014.26 1014.12 1013.85 1013.45 1012.95 1012.37 1011.72 1011.04 1010.34 1009.63 1008.92 1008.24 1007.60 1007.01 1006.52 1006.13 1005.86 1005.74 1005.78 1005.98 1006.32 1006.80 1007.39 1008.06 1008.79 1009.55 1010.31 1011.05 1011.77 1012.45 1013.10 1013.72 1014.30 1014.86 1015.39 1015.90 1016.38 1016.84 1017.26 1017.65 1018.00 1018.31 1018.57
1013.81 1013.87 1013.80 1013.61 1013.30 1012.88 1012.38 1011.80 1011.18 1010.53 1009.85 1009.18 1008.51 1007.88 1007.30 1006.79 1006.37 1006.06 1005.88 1005.84 1005.94 1006.18 1006.56 1007.05 1007.64 1008.29 1008.99 1009.72 1010.44 1011.16 1011.85 1012.51 1013.13 1013.73 1014.29 1014.83 1015.33 1015.81 1016.27 1016.69 1017.08 1017.43 1017.75 1018.03
1013.07 1013.18 1013.21 1013.14 1012.96 1012.68 1012.32 1011.88 1011.38 1010.82 1010.23 1009.62 1009.01 1008.41 1007.84 1007.32 1006.88 1006.52 1006.27 1006.14 1006.15 1006.28 1006.54 1006.92 1007.40 1007.97 1008.59 1009.26 1009.95 1010.64 1011.32 1011.98 1012.61 1013.21 1013.78 1014.31 1014.81 1015.28 1015.72 1016.13 1016.51 1016.87 1017.19 1017.48
1012.07 1012.25 1012.38 1012.45 1012.43 1012.33 1012.15 1011.88 1011.53 1011.11 1010.63 1010.12 1009.57 1009.02 1008.48 1007.98 1007.52 1007.13 1006.84 1006.64 1006.56 1006.59 1006.75 1007.02 1007.39 1007.86 1008.40 1009.00 1009.64 1010.30 1010.95 1011.60 1012.22 1012.82 1013.37 1013.90 1014.38 1014.84 1015.26 1015.65 1016.02 1016.36 1016.68 1016.97
1010.96 1011.21 1011.44 1011.64 1011.79 1011.86 1011.86 1011.76 1011.57 1011.30 1010.94 1010.53 1010.07 1009.59 1009.11 1008.63 1008.20 1007.81 1007.49 1007.26 1007.12 1007.09 1007.16 1007.34 1007.61 1007.99 1008.44 1008.97 1009.54 1010.15 1010.77 1011.39 1012.00 1012.58 1013.12 1013.63 1014.10 1014.52 1014.92 1015.29 1015.63 1015.96 1016.27 1016.56
1009.91 1010.20 1010.52 1010.84 1011.12 1011.35 1011.50 1011.55 1011.50 1011.36 1011.12 1010.80 1010.44 1010.03 1009.61 1009.20 1008.81 1008.46 1008.17 1007.94 1007.79 1007.72 1007.74 1007.85 1008.05 1008.34 1008.72 1009.16 1009.67 1010.21 1010.79 1011.37 1011.95 1012.50 1013.02 1013.51 1013.95 1014.35 1014.72 1015.06 1015.38 1015.68 1015.97 1016.26
1009.06 1009.39 1009.77 1010.18 1010.56 1010.90 1011.15 1011.31 1011.36 1011.30 1011.15 1010.92 1010.63 1010.30 1009.96 1009.63 1009.32 1009.04 1008.81 1008.63 1008.50 1008.44 1008.44 1008.52 1008.66 1008.88 1009.18 1009.54 1009.97 1010.45 1010.96 1011.50 1012.03 1012.55 1013.05 1013.51 1013.92 1014.30 1014.65 1014.96 1015.25 1015.54 1015.81 1016.08
1008.51 1008.87 1009.29 1009.74 1010.18 1010.57 1010.88 1011.09 1011.19 1011.18 1011.08 1010.90 1010.67 1010.42 1010.16 1009.92 1009.71 1009.53 1009.39 1009.29 1009.22 1009.20 1009.21 1009.27 1009.38 1009.54 1009.77 1010.06 1010.40 1010.81 1011.25 1011.72 1012.21 1012.69 1013.16 1013.59 1013.99 1014.35 1014.67 1014.97 1015.24 1015.51 1015.77 1016.03
1008.26 1008.63 1009.07 1009.54 1009.99 1010.39 1010.70 1010.92 1011.02 1011.02 1010.94 1010.79 1010.61 1010.43 1010.26 1010.11 1010.01 1009.94 1009.91 1009.90 1009.92 1009.95 1009.99 1010.05 1010.14 1010.26 1010.42 1010.63 1010.90 1011.23 1011.60 1012.01 1012.45 1012.89 1013.32 1013.73 1014.12 1014.47 1014.78 1015.07 1015.34 1015.59 1015.85 1016.11
1008.26 1008.63 1009.07 1009.52 1009.95 1010.32 1010.61 1010.79 1010.87 1010.85 1010.77 1010.64 1010.51 1010.38 1010.29 1010.25 1010.25 1010.30 1010.38 1010.48 1010.58 1010.67 1010.76 1010.83 1010.90 1010.99 1011.10 1011.24 1011.44 1011.69 1012.00 1012.35 1012.73 1013.14 1013.54 1013.94 1014.31 1014.66 1014.97 1015.26 1015.53 1015.79 1016.05 1016.31
1008.41 1008.78 1009.19 1009.61 1010.00 1010.31 1010.55 1010.68 1010.72 1010.69 1010.60 1010.49 1010.39 1010.33 1010.32 1010.38 1010.49 1010.65 1010.84 1011.03 1011.22 1011.37 1011.50 1011.59 1011.65 1011.71 1011.78 1011.87 1012.01 1012.20 1012.45 1012.75 1013.09 1013.46 1013.84 1014.23 1014.60 1014.94 1015.26 1015.56 1015.84 1016.11 1016.38 1016.64
1008.62 1008.97 1009.34 1009.72 1010.04 1010.30 1010.48 1010.56 1010.57 1010.52 1010.44 1010.36 1010.32 1010.32 1010.40 1010.55 1010.76 1011.02 1011.30 1011.59 1011.84 1012.06 1012.22 1012.33 1012.40 1012.45 1012.49 1012.55 1012.64 1012.79 1012.99 1013.25 1013.56 1013.91 1014.28 1014.65 1015.01 1015.36 1015.69 1015.99 1016.28 1016.56 1016.83 1017.10
1008.83 1009.15 1009.48 1009.79 1010.06 1010.26 1010.38 1010.43 1010.43 1010.38 1010.33 1010.30 1010.31 1010.40 1010.56 1010.81 1011.11 1011.46 1011.82 1012.18 1012.50 1012.76 1012.96 1013.10 1013.18 1013.23 1013.26 1013.31 1013.38 1013.51 1013.69 1013.92 1014.21 1014.53 1014.88 1015.25 1015.60 1015.94 1016.27 1016.57 1016.86 1017.14 1017.40 1017.67
1009.05 1009.32 1009.59 1009.84 1010.04 1010.19 1010.28 1010.32 1010.31 1010.30 1010.30 1010.33 1010.43 1010.61 1010.86 1011.19 1011.58 1012.00 1012.43 1012.84 1013.21 1013.52 1013.75 1013.92 1014.02 1014.09 1014.14 1014.19 1014.27 1014.39 1014.56 1014.79 1015.06 1015.37 1015.70 1016.04 1016.38 1016.70 1017.01 1017.30 1017.57 1017.83 1018.07 1018.31
1009.34 1009.54 1009.74 1009.92 1010.06 1010.17 1010.23 1010.27 1010.30 1010.34 1010.41 1010.52 1010.71 1010.98 1011.32 1011.73 1012.19 1012.67 1013.16 1013.61 1014.01 1014.35 1014.62 1014.82 1014.96 1015.06 1015.13 1015.21 1015.31 1015.44 1015.62 1015.84 1016.10 1016.39 1016.70 1017.01 1017.32 1017.61 1017.88 1018.14 1018.37 1018.59 1018.80 1019.00
1009.74 1009.87 1010.00 1010.11 1010.20 1010.27 1010.33 1010.39 1010.46 1010.56 1010.71 1010.91 1011.19 1011.54 1011.97 1012.44 1012.96 1013.48 1014.00 1014.48 1014.91 1015.28 1015.57 1015.80 1015.98 1016.11 1016.23 1016.34 1016.47 1016.62 1016.81 1017.03 1017.28 1017.54 1017.82 1018.09 1018.36 1018.60 1018.82 1019.02 1019.21 1019.37 1019.53 1019.67
1010.33 1010.39 1010.44 1010.49 1010.54 1010.59 1010.65 1010.74 1010.86 1011.02 1011.25 1011.54 1011.90 1012.32 1012.81 1013.33 1013.88 1014.43 1014.96 1015.46 1015.90 1016.27 1016.59 1016.84 1017.05 1017.22 1017.37 1017.51 1017.67 1017.84 1018.04 1018.25 1018.49 1018.72 1018.96 1019.19 1019.40 1019.59 1019.75 1019.89 1020.02 1020.12 1020.22 1020.30
1011.11 1011.11 1011.10 1011.11 1011.12 1011.16 1011.24 1011.35 1011.52 1011.75 1012.04 1012.40 1012.82 1013.30 1013.83 1014.38 1014.94 1015.49 1016.01 1016.50 1016.93 1017.30 1017.62 1017.89 1018.11 1018.31 1018.49 1018.66 1018.84 1019.02 1019.21 1019.42 1019.62 1019.83 1020.02 1020.20 1020.36 1020.49 1020.60 1020.68 1020.75 1020.79 1020.83 1020.85
1012.06 1012.01 1011.96 1011.94 1011.94 1011.99 1012.08 1012.23 1012.44 1012.72 1013.07 1013.48 1013.94 1014.45 1014.99 1015.54 1016.09 1016.62 1017.12 1017.57 1017.98 1018.33 1018.64 1018.90 1019.13 1019.33 1019.52 1019.70 1019.88 1020.06 1020.25 1020.43 1020.61 1020.78 1020.93 1021.06 1021.16 1021.25 1021.31 1021.34 1021.36 1021.36 1021.34 1021.31
1013.08 1013.02 1012.96 1012.94 1012.95 1013.01 1013.13 1013.31 1013.56 1013.88 1014.27 1014.71 1015.19 1015.70 1016.23 1016.76 1017.28 1017.77 1018.22 1018.63 1018.99 1019.31 1019.59 1019.83 1020.04 1020.24 1020.42 1020.60 1020.77 1020.93 1021.10 1021.25 1021.40 1021.53 1021.64 1021.73 1021.80 1021.85 1021.87 1021.88 1021.86 1021.83 1021.78 1021.71
1014.10 1014.05 1014.01 1014.00 1014.04 1014.13 1014.29 1014.51 1014.80 1015.15 1015.56 1016.01 1016.49 1016.99 1017.49 1017.99 1018.45 1018.89 1019.29 1019.64 1019.95 1020.22 1020.46 1020.66 1020.85 1021.02 1021.18 1021.34 1021.49 1021.63 1021.77 1021.90 1022.01 1022.11 1022.19 1022.25 1022.29 1022.31 1022.32 1022.30 1022.27 1022.22 1022.14 1022.05
1015.04 1015.02 1015.02 1015.05 1015.13 1015.27 1015.47 1015.73 1016.05 1016.42 1016.84 1017.29 1017.77 1018.24 1018.71 1019.15 1019.57 1019.95 1020.28 1020.58 1020.83 1021.05 1021.24 1021.41 1021.57 1021.71 1021.84 1021.97 1022.09 1022.21 1022.32 1022.42 1022.51 1022.58 1022.64 1022.68 1022.70 1022.71 1022.70 1022.67 1022.63 1022.56 1022.47 1022.36
Thickness
5719 5726 5726 5722 5721 5722 5719 5718 5710 5716 5721 5730 5738 5742 5746 5748 5750 5749 5748 5747 5745 5742 5742 5740 5740 5739 5739 5737 5736 5734 5730 5727 5726 5727 5726 5724 5721 5720 5718 5717 5715 5713 5711 5708
5713 5723 5723 5720 5723 5723 5722 5723 5721 5721 5723 5741 5745 5747 5745 5746 5746 5744 5744 5744 5744 5743 5741 5741 5740 5739 5738 5736 5735 5734 5729 5726 5725 5724 5723 5721 5718 5717 5715 5713 5711 5709 5707 5704
5701 5716 5715 5706 5722 5724 5724 5728 5726 5718 5727 5740 5739 5741 5742 5743 5743 5742 5742 5743 5742 5742 5741 5741 5742 5742 5738 5737 5735 5732 5728 5725 5723 5722 5719 5718 5716 5713 5710 5708 5706 5704 5702 5700
5698 5700 5685 5714 5740 5736 5729 5730 5735 5735 5738 5740 5740 5743 5745 5745 5742 5740 5741 5741 5742 5742 5742 5743 5744 5742 5740 5737 5734 5730 5727 5724 5722 5720 5716 5714 5711 5708 5706 5705 5702 5700 5698 5696
5693 5687 5695 5718 5732 5734 5726 5724 5738 5737 5738 5741 5744 5740 5738 5745 5745 5742 5741 5741 5742 5744 5743 5742 5742 5741 5739 5735 5732 5729 5725 5722 5721 5718 5714 5710 5707 5705 5703 5701 5698 5696 5695 5693
5691 5680 5681 5710 5734 5742 5730 5714 5737 5740 5738 5739 5738 5721 5724 5741 5743 5741 5741 5741 5741 5742 5741 5739 5739 5739 5735 5731 5729 5725 5724 5722 5720 5716 5712 5708 5705 5703 5701 5698 5695 5693 5691 5689
5687 5684 5695 5721 5734 5734 5706 5711 5737 5740 5740 5739 5734 5731 5735 5740 5738 5738 5737 5737 5737 5736 5734 5734 5736 5734 5729 5727 5725 5725 5724 5720 5717 5714 5710 5706 5703 5700 5697 5694 5691 5689 5687 5685
5690 5682 5688 5724 5726 5719 5720 5736 5738 5738 5739 5738 5735 5736 5735 5734 5732 5732 5730 5731 5732 5729 5727 5728 5729 5727 5723 5720 5722 5722 5719 5716 5713 5710 5707 5704 5699 5696 5693 5690 5686 5683 5681 5680
5701 5699 5717 5726 5727 5731 5735 5732 5733 5734 5736 5735 5732 5730 5729 5728 5727 5727 5726 5725 5726 5723 5721 5722 5722 5721 5717 5716 5717 5716 5713 5709 5707 5705 5702 5699 5695 5690 5687 5685 5681 5679 5676 5674
5704 5708 5717 5723 5728 5731 5732 5730 5732 5732 5732 5730 5727 5726 5724 5723 5722 5722 5721 5720 5719 5717 5715 5714 5715 5714 5712 5712 5712 5710 5706 5702 5700 5698 5695 5693 5690 5686 5682 5679 5676 5674 5671 5669
5698 5706 5712 5717 5721 5724 5726 5728 5728 5727 5727 5726 5724 5721 5720 5718 5717 5716 5715 5714 5713 5710 5708 5708 5708 5707 5707 5706 5706 5703 5700 5697 5694 5692 5689 5685 5682 5680 5677 5675 5673 5670 5668 5665
5691 5705 5705 5707 5717 5720 5719 5718 5720 5719 5718 5720 5719 5716 5715 5713 5712 5711 5709 5708 5705 5703 5702 5701 5701 5700 5700 5700 5699 5696 5692 5690 5687 5684 5682 5678 5675 5671 5670 5668 5667 5665 5663 5660
5702 5709 5710 5710 5714 5715 5714 5714 5715 5714 5712 5711 5711 5710 5708 5706 5705 5704 5703 5701 5698 5696 5696 5695 5693 5692 5693 5693 5692 5689 5685 5682 5679 5677 5674 5671 5668 5665 5661 5659 5658 5657 5656 5653
5701 5702 5698 5701 5704 5709 5708 5709 5709 5708 5707 5706 5704 5703 5701 5699 5698 5696 5695 5694 5693 5691 5689 5687 5686 5684 5686 5685 5683 5680 5678 5675 5672 5669 5667 5665 5662 5660 5657 5653 5650 5648 5647 5645
5691 5695 5695 5697 5698 5700 5700 5699 5698 5697 5697 5697 5696 5695 5693 5690 5689 5688 5689 5688 5686 5683 5681 5679 5677 5676 5678 5677 5675 5672 5669 5666 5665 5662 5660 5657 5655 5653 5650 5647 5644 5641 5638 5635
5682 5686 5688 5687 5687 5689 5689 5689 5688 5688 5688 5687 5686 5685 5685 5684 5682 5681 5680 5680 5676 5673 5672 5670 5668 5668 5669 5668 5665 5663 5660 5659 5656 5654 5651 5648 5646 5643 5641 5638 5635 5632 5629 5626
5669 5670 5674 5675 5677 5679 5680 5681 5681 5681 5681 5680 5678 5677 5676 5675 5673 5671 5670 5670 5668 5665 5664 5662 5660 5660 5660 5658 5656 5653 5651 5648 5647 5644 5641 5639 5636 5633 5631 5629 5626 5623 5620 5617
5665 5668 5670 5671 5671 5671 5672 5673 5674 5673 5672 5672 5671 5669 5667 5665 5663 5661 5661 5660 5658 5655 5653 5652 5651 5650 5649 5647 5645 5643 5641 5638 5636 5634 5631 5628 5626 5623 5621 5618 5616 5613 5609 5607
5656 5659 5661 5662 5663 5664 5664 5664 5665 5665 5665 5664 5662 5659 5658 5656 5655 5653 5652 5649 5645 5642 5641 5641 5640 5640 5638 5636 5635 5633 5631 5629 5626 5623 5621 5618 5615 5613 5610 5607 5604 5602 5599 5596
5646 5650 5652 5653 5655 5655 5655 5656 5657 5656 5656 5656 5653 5649 5647 5646 5645 5643 5640 5636 5633 5632 5632 5630 5629 5628 5627 5625 5623 5621 5620 5617 5615 5612 5609 5606 5603 5601 5598 5595 5592 5589 5586 5583
5636 5639 5641 5643 5644 5646 5647 5648 5648 5647 5646 5645 5643 5640 5637 5636 5635 5632 5629 5624 5622 5621 5621 5619 5618 5616 5614 5612 5611 5609 5607 5605 5602 5599 5596 5593 5591 5588 5585 5582 5579 5576 5572 5569
5626 5629 5631 5633 5634 5636 5638 5639 5639 5638 5636 5635 5633 5631 5628 5625 5623 5620 5617 5613 5611 5609 5608 5606 5605 5603 5602 5600 5598 5596 5594 5592 5589 5586 5583 5580 5576 5573 5570 5567 5564 5561 5557 5553
5616 5618 5621 5623 5625 5626 5628 5628 5628 5628 5626 5624 5622 5620 5617 5614 5612 5608 5603 5601 5600 5598 5596 5594 5593 5591 5590 5588 5586 5583 5581 5578 5575 5572 5569 5565 5562 5559 5556 5552 5549 5545 5541 5537
5605 5608 5611 5613 5615 5616 5615 5616 5617 5616 5615 5613 5611 5609 5607 5603 5599 5597 5594 5591 5589 5586 5584 5582 5581 5579 5577 5575 5573 5570 5567 5563 5560 5557 5554 5550 5547 5543 5540 5536 5532 5528 5524 5520
5594 5597 5600 5601 5602 5603 5604 5605 5604 5602 5601 5600 5598 5597 5595 5593 5589 5585 5582 5579 5576 5574 5572 5570 5568 5566 5564 5562 5559 5555 5552 5549 5545 5542 5538 5534 5531 5527 5524 5520 5516 5512 5508 5504
5582 5584 5587 5589 5590 5590 5592 5591 5589 5588 5587 5585 5584 5583 5581 5579 5576 5573 5569 5566 5564 5562 5559 5557 5554 5552 5550 5547 5544 5540 5537 5533 5529 5526 5522 5518 5515 5511 5507 5503 5500 5496 5492 5488
5570 5571 5573 5574 5576 5578 5579 5579 5577 5576 5574 5572 5570 5568 5566 5564 5562 5559 5557 5554 5551 5549 5547 5544 5541 5538 5535 5532 5529 5526 5522 5518 5514 5511 5507 5503 5499 5495 5492 5488 5484 5480 5476 5472